Location: Marcé
(47.5801°N, 0.3280°W)
Time: 11:07:41
(UTC+01:00)

deb Explorer IX - Pass Details

Date: 04 December 2021
Orbit: 544 x 1082 km, 38.8° (Epoch: 17 January)

Event Time Altitude Azimuth Distance (km) Brightness Sun altitude
Rises 12:53:08 0° 246° (WSW) 2,902 ? 20.1°
Reaches altitude 10° 12:55:51 10° 233° (SW) 1,925 ? 20.1°
Maximum altitude 12:59:25 25° 178° (S) 1,161 ? 20.1°
Drops below altitude 10° 13:02:49 10° 123° (ESE) 1,814 ? 20.1°
Sets 13:05:18 0° 109° (ESE) 2,695 ? 20.0°
